Data supplied by UK-AIR on 20/3/2018
All Data GMT hour ending 
Status: R =Ratified P=Provisional,P*=As supplied
,,Bradford Mayo Avenue,,,,,,,,,,,,,,,,,,,,,,,
Date,time,"Nitric oxide",status,unit,"Nitrogen dioxide",status,unit,"Nitrogen oxides as nitrogen dioxide",status,unit
 
01-01-2017,01:00,17.60813,R,ugm-3,24.79174,R,ugm-3,51.79050,R,ugm-3
01-01-2017,02:00,13.51408,R,ugm-3,22.44829,R,ugm-3,43.16959,R,ugm-3
01-01-2017,03:00,18.87009,R,ugm-3,22.61053,R,ugm-3,51.54427,R,ugm-3
01-01-2017,04:00,9.89733,R,ugm-3,15.86132,R,ugm-3,31.03701,R,ugm-3
01-01-2017,05:00,16.84292,R,ugm-3,16.29737,R,ugm-3,42.12281,R,ugm-3
01-01-2017,06:00,10.76139,R,ugm-3,10.05688,R,ugm-3,26.55745,R,ugm-3
01-01-2017,07:00,10.97032,R,ugm-3,10.79893,R,ugm-3,27.61985,R,ugm-3
01-01-2017,08:00,14.21984,R,ugm-3,10.89647,R,ugm-3,32.69993,R,ugm-3
01-01-2017,09:00,15.91898,R,ugm-3,14.34232,R,ugm-3,38.75108,R,ugm-3
01-01-2017,10:00,20.56891,R,ugm-3,19.35928,R,ugm-3,50.89784,R,ugm-3
01-01-2017,11:00,25.54751,R,ugm-3,20.54694,R,ugm-3,59.71925,R,ugm-3
01-01-2017,12:00,33.11925,R,ugm-3,24.82616,R,ugm-3,75.60830,R,ugm-3
01-01-2017,13:00,44.47716,R,ugm-3,35.49218,R,ugm-3,103.68953,R,ugm-3
01-01-2017,14:00,38.93229,R,ugm-3,32.77117,R,ugm-3,92.46651,R,ugm-3
01-01-2017,15:00,41.58529,R,ugm-3,31.93588,R,ugm-3,95.69911,R,ugm-3
01-01-2017,16:00,48.26303,R,ugm-3,42.85100,R,ugm-3,116.85327,R,ugm-3
01-01-2017,17:00,49.12772,R,ugm-3,40.83188,R,ugm-3,116.15999,R,ugm-3
01-01-2017,18:00,44.92463,R,ugm-3,41.59544,R,ugm-3,110.47891,R,ugm-3
01-01-2017,19:00,54.97038,R,ugm-3,45.91387,R,ugm-3,130.20061,R,ugm-3
01-01-2017,20:00,51.72117,R,ugm-3,49.83401,R,ugm-3,129.13869,R,ugm-3
01-01-2017,21:00,42.12226,R,ugm-3,44.18353,R,ugm-3,108.77009,R,ugm-3
01-01-2017,22:00,40.15495,R,ugm-3,39.11684,R,ugm-3,100.68691,R,ugm-3
01-01-2017,23:00,41.19801,R,ugm-3,41.58205,R,ugm-3,104.75145,R,ugm-3
01-01-2017,24:00,30.52580,R,ugm-3,32.17399,R,ugm-3,78.97956,R,ugm-3
02-01-2017,01:00,12.40107,R,ugm-3,20.64480,R,ugm-3,39.65951,R,ugm-3
02-01-2017,02:00,6.59822,R,ugm-3,11.19004,R,ugm-3,21.30716,R,ugm-3
02-01-2017,03:00,9.45017,R,ugm-3,9.48074,R,ugm-3,23.97080,R,ugm-3
02-01-2017,04:00,7.66154,R,ugm-3,6.45038,R,ugm-3,18.19792,R,ugm-3
02-01-2017,05:00,7.86984,R,ugm-3,4.79081,R,ugm-3,16.85773,R,ugm-3
02-01-2017,06:00,8.70460,R,ugm-3,11.08581,R,ugm-3,24.43267,R,ugm-3
02-01-2017,07:00,11.95381,R,ugm-3,24.25528,R,ugm-3,42.58420,R,ugm-3
02-01-2017,08:00,7.48224,R,ugm-3,15.91630,R,ugm-3,27.38891,R,ugm-3
02-01-2017,09:00,10.19512,R,ugm-3,21.50128,R,ugm-3,37.13358,R,ugm-3
02-01-2017,10:00,33.98394,R,ugm-3,29.45776,R,ugm-3,81.56573,R,ugm-3
02-01-2017,11:00,40.98908,R,ugm-3,40.00902,R,ugm-3,102.85808,R,ugm-3
02-01-2017,12:00,34.72920,R,ugm-3,35.24355,R,ugm-3,88.49424,R,ugm-3
02-01-2017,13:00,31.80802,R,ugm-3,32.88687,R,ugm-3,81.65849,R,ugm-3
02-01-2017,14:00,29.60155,R,ugm-3,31.51322,R,ugm-3,76.90163,R,ugm-3
02-01-2017,15:00,45.99762,R,ugm-3,48.17157,R,ugm-3,118.70027,R,ugm-3
02-01-2017,16:00,44.47716,R,ugm-3,51.05706,R,ugm-3,119.25442,R,ugm-3
02-01-2017,17:00,39.20077,R,ugm-3,51.24974,R,ugm-3,111.35675,R,ugm-3
02-01-2017,18:00,42.56910,R,ugm-3,58.87870,R,ugm-3,124.15042,R,ugm-3
02-01-2017,19:00,41.82415,R,ugm-3,60.94468,R,ugm-3,125.07415,R,ugm-3
02-01-2017,20:00,30.55604,R,ugm-3,46.21461,R,ugm-3,93.06655,R,ugm-3
02-01-2017,21:00,23.40122,R,ugm-3,37.00209,R,ugm-3,72.88346,R,ugm-3
02-01-2017,22:00,15.59063,R,ugm-3,27.50079,R,ugm-3,51.40609,R,ugm-3
02-01-2017,23:00,13.20610,R,ugm-3,28.66264,R,ugm-3,48.91171,R,ugm-3
02-01-2017,24:00,16.18715,R,ugm-3,39.24115,R,ugm-3,64.06110,R,ugm-3
03-01-2017,01:00,26.15339,R,ugm-3,43.73696,R,ugm-3,83.83826,R,ugm-3
03-01-2017,02:00,3.17978,R,ugm-3,7.82340,R,ugm-3,12.69900,R,ugm-3
03-01-2017,03:00,2.65301,R,ugm-3,5.68778,R,ugm-3,9.75566,R,ugm-3
03-01-2017,04:00,6.02134,R,ugm-3,5.88620,R,ugm-3,15.11879,R,ugm-3
03-01-2017,05:00,5.54518,R,ugm-3,3.24073,R,ugm-3,11.74323,R,ugm-3
03-01-2017,06:00,11.20886,R,ugm-3,11.34017,R,ugm-3,28.52685,R,ugm-3
03-01-2017,07:00,17.76717,R,ugm-3,18.25242,R,ugm-3,45.49503,R,ugm-3
03-01-2017,08:00,41.37700,R,ugm-3,40.72238,R,ugm-3,104.16623,R,ugm-3
03-01-2017,09:00,32.34436,R,ugm-3,33.67434,R,ugm-3,83.26834,R,ugm-3
03-01-2017,10:00,29.81047,R,ugm-3,26.14005,R,ugm-3,71.84880,R,ugm-3
03-01-2017,11:00,37.14366,R,ugm-3,30.24571,R,ugm-3,87.19853,R,ugm-3
03-01-2017,12:00,29.30344,R,ugm-3,28.76639,R,ugm-3,73.69771,R,ugm-3
03-01-2017,13:00,30.91371,R,ugm-3,27.03749,R,ugm-3,74.43785,R,ugm-3
03-01-2017,14:00,,,,,,,,,
03-01-2017,15:00,34.96774,R,ugm-3,30.80798,R,ugm-3,84.42444,R,ugm-3
03-01-2017,16:00,38.03828,R,ugm-3,37.24211,R,ugm-3,95.56667,R,ugm-3
03-01-2017,17:00,25.72650,R,ugm-3,24.54168,R,ugm-3,63.98843,R,ugm-3
03-01-2017,18:00,29.30375,R,ugm-3,27.93398,R,ugm-3,72.86577,R,ugm-3
03-01-2017,19:00,28.49893,R,ugm-3,30.27774,R,ugm-3,73.97550,R,ugm-3
03-01-2017,20:00,18.78060,R,ugm-3,19.93494,R,ugm-3,48.73146,R,ugm-3
03-01-2017,21:00,17.20089,R,ugm-3,17.54910,R,ugm-3,43.92343,R,ugm-3
03-01-2017,22:00,10.88051,R,ugm-3,13.23068,R,ugm-3,29.91389,R,ugm-3
03-01-2017,23:00,10.73177,R,ugm-3,11.60888,R,ugm-3,28.06403,R,ugm-3
03-01-2017,24:00,5.36620,R,ugm-3,6.24336,R,ugm-3,14.47141,R,ugm-3
04-01-2017,01:00,4.01423,R,ugm-3,4.67224,R,ugm-3,10.82730,R,ugm-3
04-01-2017,02:00,2.02728,R,ugm-3,4.64355,R,ugm-3,7.75200,R,ugm-3
04-01-2017,03:00,2.74250,R,ugm-3,4.88405,R,ugm-3,9.08916,R,ugm-3
04-01-2017,04:00,2.41446,R,ugm-3,3.95696,R,ugm-3,7.65908,R,ugm-3
04-01-2017,05:00,4.53113,R,ugm-3,7.40138,R,ugm-3,14.34901,R,ugm-3
04-01-2017,06:00,13.89180,R,ugm-3,16.71860,R,ugm-3,38.01907,R,ugm-3
04-01-2017,07:00,19.07839,R,ugm-3,21.91534,R,ugm-3,51.16846,R,ugm-3
04-01-2017,08:00,64.98651,R,ugm-3,53.44529,R,ugm-3,153.08989,R,ugm-3
04-01-2017,09:00,68.41503,R,ugm-3,59.99991,R,ugm-3,164.90149,R,ugm-3
04-01-2017,10:00,90.80251,R,ugm-3,62.76873,R,ugm-3,201.99729,R,ugm-3
04-01-2017,11:00,97.00315,R,ugm-3,60.36615,R,ugm-3,209.10223,R,ugm-3
04-01-2017,12:00,93.36633,R,ugm-3,59.99082,R,ugm-3,203.15053,R,ugm-3
04-01-2017,13:00,90.86238,R,ugm-3,58.24662,R,ugm-3,197.56699,R,ugm-3
04-01-2017,14:00,73.09552,R,ugm-3,48.99347,R,ugm-3,161.07171,R,ugm-3
04-01-2017,15:00,77.74577,R,ugm-3,58.65829,R,ugm-3,177.86680,R,ugm-3
04-01-2017,16:00,91.30953,R,ugm-3,62.82132,R,ugm-3,202.82732,R,ugm-3
04-01-2017,17:00,92.97873,R,ugm-3,73.41179,R,ugm-3,215.97719,R,ugm-3
04-01-2017,18:00,71.84323,R,ugm-3,67.15457,R,ugm-3,177.31266,R,ugm-3
04-01-2017,19:00,51.54187,R,ugm-3,59.89472,R,ugm-3,138.92448,R,ugm-3
04-01-2017,20:00,48.77005,R,ugm-3,48.64253,R,ugm-3,123.42223,R,ugm-3
04-01-2017,21:00,30.49617,R,ugm-3,40.76589,R,ugm-3,87.52604,R,ugm-3
04-01-2017,22:00,19.88352,R,ugm-3,30.46230,R,ugm-3,60.94994,R,ugm-3
04-01-2017,23:00,10.73177,R,ugm-3,26.13097,R,ugm-3,42.58612,R,ugm-3
04-01-2017,24:00,10.43367,R,ugm-3,19.02125,R,ugm-3,35.01931,R,ugm-3
05-01-2017,01:00,10.14637,R,ugm-3,18.08460,R,ugm-3,33.64215,R,ugm-3
05-01-2017,02:00,3.70032,R,ugm-3,16.91798,R,ugm-3,22.59173,R,ugm-3
05-01-2017,03:00,3.22302,R,ugm-3,13.19912,R,ugm-3,18.14102,R,ugm-3
05-01-2017,04:00,4.20777,R,ugm-3,12.47189,R,ugm-3,18.92371,R,ugm-3
05-01-2017,05:00,11.63856,R,ugm-3,20.78505,R,ugm-3,38.63059,R,ugm-3
05-01-2017,06:00,39.54035,R,ugm-3,48.54116,R,ugm-3,109.16885,R,ugm-3
05-01-2017,07:00,124.67824,R,ugm-3,96.04814,R,ugm-3,287.21877,R,ugm-3
05-01-2017,08:00,190.92671,R,ugm-3,129.79086,R,ugm-3,422.54106,R,ugm-3
05-01-2017,09:00,387.97173,R,ugm-3,135.09087,R,ugm-3,729.97256,R,ugm-3
05-01-2017,10:00,431.51030,R,ugm-3,159.40640,R,ugm-3,821.04629,R,ugm-3
05-01-2017,11:00,319.75315,R,ugm-3,141.11238,R,ugm-3,631.39371,R,ugm-3
05-01-2017,12:00,227.48289,R,ugm-3,128.85230,R,ugm-3,477.65453,R,ugm-3
05-01-2017,13:00,179.55725,R,ugm-3,113.97974,R,ugm-3,389.29703,R,ugm-3
05-01-2017,14:00,203.07260,R,ugm-3,127.19033,R,ugm-3,438.56398,R,ugm-3
05-01-2017,15:00,228.07972,R,ugm-3,141.52022,R,ugm-3,491.23758,R,ugm-3
05-01-2017,16:00,263.23331,R,ugm-3,134.58310,R,ugm-3,538.20188,R,ugm-3
05-01-2017,17:00,349.83366,R,ugm-3,162.94930,R,ugm-3,699.35344,R,ugm-3
05-01-2017,18:00,303.16157,R,ugm-3,154.39708,R,ugm-3,619.23833,R,ugm-3
05-01-2017,19:00,359.35306,R,ugm-3,174.04563,R,ugm-3,725.04596,R,ugm-3
05-01-2017,20:00,159.23500,R,ugm-3,109.96301,R,ugm-3,354.11993,R,ugm-3
05-01-2017,21:00,55.95325,R,ugm-3,85.90185,R,ugm-3,171.69564,R,ugm-3
05-01-2017,22:00,38.85371,R,ugm-3,65.80100,R,ugm-3,125.37585,R,ugm-3
05-01-2017,23:00,21.33663,R,ugm-3,38.74390,R,ugm-3,71.45961,R,ugm-3
05-01-2017,24:00,13.45868,R,ugm-3,26.64973,R,ugm-3,47.28608,R,ugm-3
06-01-2017,01:00,16.59200,R,ugm-3,30.79699,R,ugm-3,56.23770,R,ugm-3
06-01-2017,02:00,5.68935,R,ugm-3,20.95845,R,ugm-3,29.68200,R,ugm-3
06-01-2017,03:00,6.29668,R,ugm-3,16.60863,R,ugm-3,26.26341,R,ugm-3
06-01-2017,04:00,4.95365,R,ugm-3,18.43841,R,ugm-3,26.03391,R,ugm-3
06-01-2017,05:00,9.22098,R,ugm-3,18.56464,R,ugm-3,32.70327,R,ugm-3
06-01-2017,06:00,19.09835,R,ugm-3,24.25528,R,ugm-3,53.53900,R,ugm-3
06-01-2017,07:00,35.30264,R,ugm-3,37.81586,R,ugm-3,91.94583,R,ugm-3
06-01-2017,08:00,65.47265,R,ugm-3,59.90428,R,ugm-3,160.29428,R,ugm-3
06-01-2017,09:00,56.49053,R,ugm-3,57.76276,R,ugm-3,144.38036,R,ugm-3
06-01-2017,10:00,79.05044,R,ugm-3,66.77494,R,ugm-3,187.98393,R,ugm-3
06-01-2017,11:00,71.08300,R,ugm-3,63.16940,R,ugm-3,172.16182,R,ugm-3
06-01-2017,12:00,112.26417,R,ugm-3,75.41274,R,ugm-3,247.54874,R,ugm-3
06-01-2017,13:00,74.66400,R,ugm-3,60.99010,R,ugm-3,175.47331,R,ugm-3
06-01-2017,14:00,75.49907,R,ugm-3,60.81320,R,ugm-3,176.57682,R,ugm-3
06-01-2017,15:00,89.88293,R,ugm-3,72.97957,R,ugm-3,210.79814,R,ugm-3
06-01-2017,16:00,53.89396,R,ugm-3,54.93656,R,ugm-3,137.57282,R,ugm-3
06-01-2017,17:00,54.96820,R,ugm-3,55.91146,R,ugm-3,140.19486,R,ugm-3
06-01-2017,18:00,94.89646,R,ugm-3,74.99773,R,ugm-3,220.50360,R,ugm-3
06-01-2017,19:00,83.88467,R,ugm-3,74.35704,R,ugm-3,202.97841,R,ugm-3
06-01-2017,20:00,73.08180,R,ugm-3,67.37212,R,ugm-3,179.42932,R,ugm-3
06-01-2017,21:00,38.70465,R,ugm-3,49.61742,R,ugm-3,108.96373,R,ugm-3
06-01-2017,22:00,50.04448,R,ugm-3,50.53590,R,ugm-3,127.26970,R,ugm-3
06-01-2017,23:00,73.67895,R,ugm-3,54.91122,R,ugm-3,167.88403,R,ugm-3
06-01-2017,24:00,38.76421,R,ugm-3,53.57343,R,ugm-3,113.01106,R,ugm-3
07-01-2017,01:00,11.67015,R,ugm-3,25.31321,R,ugm-3,43.20720,R,ugm-3
07-01-2017,02:00,6.57202,R,ugm-3,16.66744,R,ugm-3,26.74440,R,ugm-3
07-01-2017,03:00,16.13133,R,ugm-3,19.97224,R,ugm-3,44.70660,R,ugm-3
07-01-2017,04:00,3.82360,R,ugm-3,10.84483,R,ugm-3,16.70760,R,ugm-3
07-01-2017,05:00,4.33156,R,ugm-3,8.78077,R,ugm-3,15.42240,R,ugm-3
07-01-2017,06:00,7.46852,R,ugm-3,12.14103,R,ugm-3,23.59260,R,ugm-3
07-01-2017,07:00,30.14194,R,ugm-3,29.74750,R,ugm-3,75.96450,R,ugm-3
07-01-2017,08:00,31.75470,R,ugm-3,36.40874,R,ugm-3,85.09860,R,ugm-3
07-01-2017,09:00,27.18428,R,ugm-3,36.80702,R,ugm-3,78.48900,R,ugm-3
07-01-2017,10:00,54.07014,R,ugm-3,59.24590,R,ugm-3,142.15230,R,ugm-3
07-01-2017,11:00,126.63089,R,ugm-3,81.64845,R,ugm-3,275.81310,R,ugm-3
07-01-2017,12:00,117.48974,R,ugm-3,81.57338,R,ugm-3,261.72180,R,ugm-3
07-01-2017,13:00,95.89180,R,ugm-3,76.17966,R,ugm-3,223.21170,R,ugm-3
07-01-2017,14:00,39.22322,R,ugm-3,52.77257,R,ugm-3,112.91400,R,ugm-3
07-01-2017,15:00,36.86333,R,ugm-3,48.54212,R,ugm-3,105.06510,R,ugm-3
07-01-2017,16:00,38.83500,R,ugm-3,56.25953,R,ugm-3,115.80570,R,ugm-3
07-01-2017,17:00,42.12070,R,ugm-3,61.31953,R,ugm-3,125.90370,R,ugm-3
07-01-2017,18:00,48.75228,R,ugm-3,63.13115,R,ugm-3,137.88360,R,ugm-3
07-01-2017,19:00,43.10638,R,ugm-3,55.76898,R,ugm-3,121.86450,R,ugm-3
07-01-2017,20:00,38.65539,R,ugm-3,50.70563,R,ugm-3,109.97640,R,ugm-3
07-01-2017,21:00,18.22243,R,ugm-3,36.04393,R,ugm-3,63.98460,R,ugm-3
07-01-2017,22:00,21.56831,R,ugm-3,42.43455,R,ugm-3,75.50550,R,ugm-3
07-01-2017,23:00,15.62337,R,ugm-3,28.82950,R,ugm-3,52.78500,R,ugm-3
07-01-2017,24:00,17.62497,R,ugm-3,28.92752,R,ugm-3,55.95210,R,ugm-3
08-01-2017,01:00,10.11644,R,ugm-3,16.06245,R,ugm-3,31.57410,R,ugm-3
08-01-2017,02:00,9.28074,R,ugm-3,21.19178,R,ugm-3,35.42205,R,ugm-3
08-01-2017,03:00,3.94334,R,ugm-3,10.39731,R,ugm-3,16.44368,R,ugm-3
08-01-2017,04:00,6.24336,R,ugm-3,13.19195,R,ugm-3,22.76497,R,ugm-3
08-01-2017,05:00,4.92871,R,ugm-3,14.65836,R,ugm-3,22.21560,R,ugm-3
08-01-2017,06:00,8.09560,R,ugm-3,12.64210,R,ugm-3,25.05518,R,ugm-3
08-01-2017,07:00,16.69885,R,ugm-3,24.04730,R,ugm-3,49.65185,R,ugm-3
08-01-2017,08:00,24.25656,R,ugm-3,41.13262,R,ugm-3,78.32548,R,ugm-3
08-01-2017,09:00,56.72845,R,ugm-3,65.17991,R,ugm-3,152.16233,R,ugm-3
08-01-2017,10:00,77.66968,R,ugm-3,68.11082,R,ugm-3,187.20267,R,ugm-3
08-01-2017,11:00,48.42393,R,ugm-3,52.94948,R,ugm-3,127.19846,R,ugm-3
08-01-2017,12:00,89.52870,R,ugm-3,71.63843,R,ugm-3,208.91385,R,ugm-3
08-01-2017,13:00,33.24834,R,ugm-3,43.56006,R,ugm-3,94.54013,R,ugm-3
08-01-2017,14:00,43.37517,R,ugm-3,48.91888,R,ugm-3,115.42655,R,ugm-3
08-01-2017,15:00,23.80877,R,ugm-3,39.29996,R,ugm-3,75.80624,R,ugm-3
08-01-2017,16:00,37.66971,R,ugm-3,51.20910,R,ugm-3,108.96851,R,ugm-3
08-01-2017,17:00,39.25284,R,ugm-3,56.84333,R,ugm-3,117.03018,R,ugm-3
08-01-2017,18:00,33.30852,R,ugm-3,45.20863,R,ugm-3,96.28099,R,ugm-3
08-01-2017,19:00,34.11459,R,ugm-3,53.59160,R,ugm-3,105.89991,R,ugm-3
08-01-2017,20:00,37.28117,R,ugm-3,49.56053,R,ugm-3,106.72419,R,ugm-3
08-01-2017,21:00,32.62126,R,ugm-3,44.38434,R,ugm-3,94.40291,R,ugm-3
08-01-2017,22:00,30.82889,R,ugm-3,44.47614,R,ugm-3,91.74645,R,ugm-3
08-01-2017,23:00,15.83229,R,ugm-3,28.49051,R,ugm-3,52.76635,R,ugm-3
08-01-2017,24:00,17.44567,R,ugm-3,27.84935,R,ugm-3,54.59901,R,ugm-3
09-01-2017,01:00,8.44422,R,ugm-3,10.78459,R,ugm-3,23.73221,R,ugm-3
09-01-2017,02:00,8.96144,R,ugm-3,11.33411,R,ugm-3,25.07479,R,ugm-3
09-01-2017,03:00,7.40865,R,ugm-3,9.50513,R,ugm-3,20.86490,R,ugm-3
09-01-2017,04:00,4.98858,R,ugm-3,4.43031,R,ugm-3,12.07935,R,ugm-3
09-01-2017,05:00,12.15806,R,ugm-3,6.25005,R,ugm-3,24.89214,R,ugm-3
09-01-2017,06:00,14.75712,R,ugm-3,10.91225,R,ugm-3,33.53951,R,ugm-3
09-01-2017,07:00,26.07886,R,ugm-3,24.80369,R,ugm-3,64.79072,R,ugm-3
09-01-2017,08:00,33.60694,R,ugm-3,35.04130,R,ugm-3,86.57123,R,ugm-3
09-01-2017,09:00,33.15885,R,ugm-3,34.35567,R,ugm-3,85.19853,R,ugm-3
09-01-2017,10:00,38.68532,R,ugm-3,35.21678,R,ugm-3,94.53344,R,ugm-3
09-01-2017,11:00,30.97794,R,ugm-3,28.73149,R,ugm-3,76.23034,R,ugm-3
09-01-2017,12:00,27.12441,R,ugm-3,30.47617,R,ugm-3,72.06635,R,ugm-3
09-01-2017,13:00,30.44005,R,ugm-3,33.30906,R,ugm-3,79.98314,R,ugm-3
09-01-2017,14:00,35.75791,R,ugm-3,37.18856,R,ugm-3,92.01659,R,ugm-3
09-01-2017,15:00,32.38240,R,ugm-3,34.31121,R,ugm-3,83.96353,R,ugm-3
09-01-2017,16:00,41.07515,R,ugm-3,42.94519,R,ugm-3,105.92620,R,ugm-3
09-01-2017,17:00,43.61465,R,ugm-3,46.14337,R,ugm-3,113.01823,R,ugm-3
09-01-2017,18:00,34.26427,R,ugm-3,39.38698,R,ugm-3,91.92479,R,ugm-3
09-01-2017,19:00,27.27377,R,ugm-3,34.13717,R,ugm-3,75.95637,R,ugm-3
09-01-2017,20:00,32.47159,R,ugm-3,35.86750,R,ugm-3,85.65657,R,ugm-3
09-01-2017,21:00,14.87686,R,ugm-3,19.60552,R,ugm-3,42.41638,R,ugm-3
09-01-2017,22:00,14.99598,R,ugm-3,16.21991,R,ugm-3,39.21342,R,ugm-3
09-01-2017,23:00,13.83131,R,ugm-3,11.23355,R,ugm-3,32.44126,R,ugm-3
09-01-2017,24:00,8.81249,R,ugm-3,7.85655,R,ugm-3,21.36884,R,ugm-3
10-01-2017,01:00,4.34601,R,ugm-3,3.07785,R,ugm-3,9.74164,R,ugm-3
10-01-2017,02:00,2.55198,R,ugm-3,3.94103,R,ugm-3,7.85400,R,ugm-3
10-01-2017,03:00,1.88405,R,ugm-3,1.26703,R,ugm-3,4.15586,R,ugm-3
10-01-2017,04:00,2.90060,R,ugm-3,1.35118,R,ugm-3,5.79870,R,ugm-3
10-01-2017,05:00,4.27606,R,ugm-3,3.21491,R,ugm-3,9.77144,R,ugm-3
10-01-2017,06:00,15.10169,R,ugm-3,10.95289,R,ugm-3,34.10848,R,ugm-3
10-01-2017,07:00,26.73432,R,ugm-3,22.06595,R,ugm-3,63.05799,R,ugm-3
10-01-2017,08:00,39.59273,R,ugm-3,31.43624,R,ugm-3,92.14425,R,ugm-3
10-01-2017,09:00,30.32311,R,ugm-3,27.20197,R,ugm-3,73.69675,R,ugm-3
10-01-2017,10:00,28.05022,R,ugm-3,23.38127,R,ugm-3,66.39100,R,ugm-3
10-01-2017,11:00,23.14583,R,ugm-3,22.72767,R,ugm-3,58.21746,R,ugm-3
10-01-2017,12:00,25.95663,R,ugm-3,21.20341,R,ugm-3,61.00301,R,ugm-3
10-01-2017,13:00,32.53551,R,ugm-3,24.72241,R,ugm-3,74.60949,R,ugm-3
10-01-2017,14:00,30.38236,R,ugm-3,28.11566,R,ugm-3,74.70129,R,ugm-3
10-01-2017,15:00,41.47678,R,ugm-3,40.19071,R,ugm-3,103.78755,R,ugm-3
10-01-2017,16:00,51.73364,R,ugm-3,49.48546,R,ugm-3,128.80927,R,ugm-3
10-01-2017,17:00,39.26376,R,ugm-3,40.70708,R,ugm-3,100.91067,R,ugm-3
10-01-2017,18:00,42.85255,R,ugm-3,43.87992,R,ugm-3,109.58625,R,ugm-3
10-01-2017,19:00,42.88217,R,ugm-3,49.72452,R,ugm-3,115.47627,R,ugm-3
10-01-2017,20:00,24.07289,R,ugm-3,32.63012,R,ugm-3,69.54137,R,ugm-3
10-01-2017,21:00,12.70905,R,ugm-3,17.13313,R,ugm-3,36.62007,R,ugm-3
10-01-2017,22:00,21.11211,R,ugm-3,18.31171,R,ugm-3,50.68316,R,ugm-3
10-01-2017,23:00,19.64685,R,ugm-3,23.25265,R,ugm-3,53.37740,R,ugm-3
10-01-2017,24:00,7.11709,R,ugm-3,6.48385,R,ugm-3,17.39658,R,ugm-3
11-01-2017,01:00,5.74174,R,ugm-3,7.84253,R,ugm-3,16.64640,R,ugm-3
11-01-2017,02:00,2.67130,R,ugm-3,5.68586,R,ugm-3,9.78180,R,ugm-3
11-01-2017,03:00,2.15315,R,ugm-3,1.98422,R,ugm-3,5.28567,R,ugm-3
11-01-2017,04:00,1.61463,R,ugm-3,0.48625,R,ugm-3,2.96198,R,ugm-3
11-01-2017,05:00,4.00695,R,ugm-3,1.46545,R,ugm-3,7.60936,R,ugm-3
11-01-2017,06:00,6.54895,R,ugm-3,4.17499,R,ugm-3,14.21657,R,ugm-3
11-01-2017,07:00,14.92207,R,ugm-3,10.83766,R,ugm-3,33.71785,R,ugm-3
11-01-2017,08:00,21.85987,R,ugm-3,19.56583,R,ugm-3,53.08383,R,ugm-3
11-01-2017,09:00,23.56462,R,ugm-3,17.90865,R,ugm-3,54.04056,R,ugm-3
11-01-2017,10:00,24.28181,R,ugm-3,18.85916,R,ugm-3,56.09076,R,ugm-3
11-01-2017,11:00,27.00342,R,ugm-3,19.24262,R,ugm-3,60.64729,R,ugm-3
11-01-2017,12:00,27.15279,R,ugm-3,21.70162,R,ugm-3,63.33531,R,ugm-3
11-01-2017,13:00,,,,,,,,,
11-01-2017,14:00,,,,,,,,,
11-01-2017,15:00,,,,,,,,,
11-01-2017,16:00,,,,,,,,,
11-01-2017,17:00,,,,,,,,,
11-01-2017,18:00,24.58085,R,ugm-3,21.31673,R,ugm-3,59.00684,R,ugm-3
11-01-2017,19:00,16.80643,R,ugm-3,17.38080,R,ugm-3,43.15030,R,ugm-3
11-01-2017,20:00,12.64949,R,ugm-3,13.72984,R,ugm-3,33.12546,R,ugm-3
11-01-2017,21:00,12.49982,R,ugm-3,10.63350,R,ugm-3,29.79962,R,ugm-3
11-01-2017,22:00,11.45302,R,ugm-3,9.32248,R,ugm-3,26.88353,R,ugm-3
11-01-2017,23:00,8.07409,R,ugm-3,6.80276,R,ugm-3,19.18285,R,ugm-3
11-01-2017,24:00,6.57920,R,ugm-3,5.03944,R,ugm-3,15.12740,R,ugm-3
12-01-2017,01:00,3.66831,R,ugm-3,3.12375,R,ugm-3,8.74841,R,ugm-3
12-01-2017,02:00,2.55198,R,ugm-3,3.13522,R,ugm-3,7.04820,R,ugm-3
12-01-2017,03:00,2.24296,R,ugm-3,1.57303,R,ugm-3,5.01218,R,ugm-3
12-01-2017,04:00,2.63149,R,ugm-3,1.75185,R,ugm-3,5.78675,R,ugm-3
12-01-2017,05:00,2.72130,R,ugm-3,1.34066,R,ugm-3,5.51326,R,ugm-3
12-01-2017,06:00,11.90143,R,ugm-3,7.22256,R,ugm-3,25.47115,R,ugm-3
12-01-2017,07:00,18.98921,R,ugm-3,16.95001,R,ugm-3,46.06639,R,ugm-3
12-01-2017,08:00,32.68487,R,ugm-3,30.89931,R,ugm-3,81.01541,R,ugm-3
12-01-2017,09:00,43.21146,R,ugm-3,41.23207,R,ugm-3,107.48872,R,ugm-3
12-01-2017,10:00,66.32705,R,ugm-3,53.17658,R,ugm-3,154.87664,R,ugm-3
12-01-2017,11:00,77.72082,R,ugm-3,63.09146,R,ugm-3,182.26173,R,ugm-3
12-01-2017,12:00,60.94401,R,ugm-3,61.24781,R,ugm-3,154.69400,R,ugm-3
12-01-2017,13:00,86.60191,R,ugm-3,66.87965,R,ugm-3,199.66739,R,ugm-3
12-01-2017,14:00,56.07019,R,ugm-3,50.63153,R,ugm-3,136.60462,R,ugm-3
12-01-2017,15:00,47.78718,R,ugm-3,51.43956,R,ugm-3,124.71221,R,ugm-3
12-01-2017,16:00,58.19309,R,ugm-3,55.44194,R,ugm-3,144.67011,R,ugm-3
12-01-2017,17:00,55.56191,R,ugm-3,57.06087,R,ugm-3,142.25462,R,ugm-3
12-01-2017,18:00,61.12394,R,ugm-3,57.73742,R,ugm-3,151.45948,R,ugm-3
12-01-2017,19:00,57.17654,R,ugm-3,61.28319,R,ugm-3,148.95267,R,ugm-3
12-01-2017,20:00,30.86101,R,ugm-3,41.48738,R,ugm-3,88.80694,R,ugm-3
12-01-2017,21:00,18.21120,R,ugm-3,28.66885,R,ugm-3,56.59231,R,ugm-3
12-01-2017,22:00,15.69977,R,ugm-3,21.85701,R,ugm-3,45.92964,R,ugm-3
12-01-2017,23:00,13.18770,R,ugm-3,19.78529,R,ugm-3,40.00615,R,ugm-3
12-01-2017,24:00,8.85146,R,ugm-3,15.49842,R,ugm-3,29.07048,R,ugm-3
13-01-2017,01:00,4.22668,R,ugm-3,6.09514,R,ugm-3,12.57596,R,ugm-3
13-01-2017,02:00,5.54217,R,ugm-3,9.66705,R,ugm-3,18.16493,R,ugm-3
13-01-2017,03:00,5.71139,R,ugm-3,4.13817,R,ugm-3,12.89551,R,ugm-3
13-01-2017,04:00,3.64804,R,ugm-3,3.15515,R,ugm-3,8.74873,R,ugm-3
13-01-2017,05:00,4.51523,R,ugm-3,3.14702,R,ugm-3,10.07027,R,ugm-3
13-01-2017,06:00,12.29058,R,ugm-3,7.03561,R,ugm-3,25.88091,R,ugm-3
13-01-2017,07:00,20.93281,R,ugm-3,14.83526,R,ugm-3,46.93179,R,ugm-3
13-01-2017,08:00,27.42189,R,ugm-3,25.43625,R,ugm-3,67.48256,R,ugm-3
13-01-2017,09:00,25.50822,R,ugm-3,23.54001,R,ugm-3,62.65207,R,ugm-3
13-01-2017,10:00,28.67761,R,ugm-3,26.01717,R,ugm-3,69.98889,R,ugm-3
13-01-2017,11:00,30.56197,R,ugm-3,23.40087,R,ugm-3,70.26190,R,ugm-3
13-01-2017,12:00,24.40155,R,ugm-3,21.50080,R,ugm-3,58.91600,R,ugm-3
13-01-2017,13:00,31.78806,R,ugm-3,32.09223,R,ugm-3,80.83325,R,ugm-3
13-01-2017,14:00,29.03683,R,ugm-3,27.37983,R,ugm-3,71.90235,R,ugm-3
13-01-2017,15:00,36.30360,R,ugm-3,31.50174,R,ugm-3,87.16649,R,ugm-3
13-01-2017,16:00,42.25447,R,ugm-3,40.19310,R,ugm-3,104.98238,R,ugm-3
13-01-2017,17:00,36.81188,R,ugm-3,39.97221,R,ugm-3,96.41630,R,ugm-3
13-01-2017,18:00,30.20306,R,ugm-3,37.84885,R,ugm-3,84.15956,R,ugm-3
13-01-2017,19:00,34.98770,R,ugm-3,49.37597,R,ugm-3,103.02303,R,ugm-3
13-01-2017,20:00,35.58578,R,ugm-3,50.50913,R,ugm-3,105.07323,R,ugm-3
13-01-2017,21:00,22.12897,R,ugm-3,34.37193,R,ugm-3,68.30255,R,ugm-3
13-01-2017,22:00,15.69945,R,ugm-3,23.77094,R,ugm-3,47.84310,R,ugm-3
13-01-2017,23:00,23.26526,R,ugm-3,32.17351,R,ugm-3,67.84642,R,ugm-3
13-01-2017,24:00,12.41001,R,ugm-3,17.56058,R,ugm-3,36.58899,R,ugm-3
14-01-2017,01:00,7.21688,R,ugm-3,9.95520,R,ugm-3,21.02092,R,ugm-3
14-01-2017,02:00,4.22627,R,ugm-3,7.49254,R,ugm-3,13.97273,R,ugm-3
14-01-2017,03:00,2.81110,R,ugm-3,4.84819,R,ugm-3,9.15848,R,ugm-3
14-01-2017,04:00,3.58879,R,ugm-3,4.97680,R,ugm-3,10.47954,R,ugm-3
14-01-2017,05:00,3.25951,R,ugm-3,2.70332,R,ugm-3,7.70116,R,ugm-3
14-01-2017,06:00,6.51901,R,ugm-3,7.54720,R,ugm-3,17.54288,R,ugm-3
14-01-2017,07:00,12.49982,R,ugm-3,15.73701,R,ugm-3,34.90313,R,ugm-3
14-01-2017,08:00,15.43035,R,ugm-3,21.58639,R,ugm-3,45.24593,R,ugm-3
14-01-2017,09:00,39.98158,R,ugm-3,43.81538,R,ugm-3,105.11961,R,ugm-3
14-01-2017,10:00,39.44337,R,ugm-3,48.64970,R,ugm-3,109.12868,R,ugm-3
14-01-2017,11:00,55.08326,R,ugm-3,52.50912,R,ugm-3,136.96895,R,ugm-3
14-01-2017,12:00,45.21494,R,ugm-3,40.21079,R,ugm-3,109.53939,R,ugm-3
14-01-2017,13:00,32.95460,R,ugm-3,31.39703,R,ugm-3,81.92672,R,ugm-3
14-01-2017,14:00,30.14319,R,ugm-3,28.96386,R,ugm-3,75.18277,R,ugm-3
14-01-2017,15:00,34.44949,R,ugm-3,37.26076,R,ugm-3,90.08258,R,ugm-3
14-01-2017,16:00,47.87636,R,ugm-3,58.09171,R,ugm-3,131.50111,R,ugm-3
14-01-2017,17:00,106.87677,R,ugm-3,82.90640,R,ugm-3,246.78183,R,ugm-3
14-01-2017,18:00,107.38536,R,ugm-3,91.83203,R,ugm-3,256.48729,R,ugm-3
14-01-2017,19:00,111.78116,R,ugm-3,88.32642,R,ugm-3,259.72180,R,ugm-3
14-01-2017,20:00,69.40726,R,ugm-3,73.28700,R,ugm-3,179.70998,R,ugm-3
14-01-2017,21:00,101.49436,R,ugm-3,87.46867,R,ugm-3,243.09118,R,ugm-3
14-01-2017,22:00,123.35423,R,ugm-3,101.56618,R,ugm-3,290.70669,R,ugm-3
14-01-2017,23:00,114.14354,R,ugm-3,105.07227,R,ugm-3,280.08993,R,ugm-3
14-01-2017,24:00,61.24337,R,ugm-3,90.13326,R,ugm-3,184.03844,R,ugm-3
15-01-2017,01:00,134.28931,R,ugm-3,111.71295,R,ugm-3,317.62035,R,ugm-3
15-01-2017,02:00,17.38404,R,ugm-3,33.30874,R,ugm-3,59.96389,R,ugm-3
15-01-2017,03:00,11.00462,R,ugm-3,22.13049,R,ugm-3,39.00400,R,ugm-3
15-01-2017,04:00,6.75850,R,ugm-3,11.55389,R,ugm-3,21.91677,R,ugm-3
15-01-2017,05:00,3.58848,R,ugm-3,6.84579,R,ugm-3,12.34806,R,ugm-3
15-01-2017,06:00,4.54485,R,ugm-3,4.55940,R,ugm-3,11.52807,R,ugm-3
15-01-2017,07:00,5.05344,R,ugm-3,4.73678,R,ugm-3,12.48528,R,ugm-3
15-01-2017,08:00,6.84768,R,ugm-3,7.36217,R,ugm-3,17.86179,R,ugm-3
15-01-2017,09:00,9.89826,R,ugm-3,10.93137,R,ugm-3,26.10849,R,ugm-3
15-01-2017,10:00,10.22724,R,ugm-3,15.21155,R,ugm-3,30.89309,R,ugm-3
15-01-2017,11:00,13.15746,R,ugm-3,17.82689,R,ugm-3,38.00138,R,ugm-3
15-01-2017,12:00,15.63958,R,ugm-3,23.04228,R,ugm-3,47.02264,R,ugm-3
15-01-2017,13:00,24.55092,R,ugm-3,32.84528,R,ugm-3,70.48949,R,ugm-3
15-01-2017,14:00,21.08218,R,ugm-3,29.05088,R,ugm-3,61.37643,R,ugm-3
15-01-2017,15:00,15.58002,R,ugm-3,22.26819,R,ugm-3,46.15723,R,ugm-3
15-01-2017,16:00,18.80991,R,ugm-3,25.01693,R,ugm-3,53.85839,R,ugm-3